Lid_Strength_Index
8 8 8 8 8 8 8 9 10 12 12 13 13 11 10 9 6 7 7 6 5 5 5 5 5 5 5 5 4 4 4 4 4 4 3 3 3 3
8 8 8 9 10 10 10 11 11 11 12 11 9 9 10 9 7 10 10 5 5 4 5 5 5 4 4 4 5 4 5 4 4 4 4 3 2 1
9 8 10 10 11 11 11 11 11 11 11 11 11 12 12 11 11 11 10 10 10 6 5 5 5 5 4 4 5 5 5 5 4 3 3 2 1 0
10 10 10 10 11 11 11 11 11 11 11 13 13 12 12 12 12 11 10 9 10 7 5 5 5 5 5 5 4 4 4 4 4 2 2 1 1 0
10 10 10 10 11 10 10 11 12 11 13 13 13 13 12 12 11 11 11 11 9 7 6 5 6 5 5 5 4 4 3 3 2 2 2 1 1 1
10 10 10 11 11 11 11 12 11 12 13 13 13 13 13 12 12 12 12 12 11 9 8 7 5 5 5 4 4 3 3 2 1 1 2 2 2 1
11 10 11 9 7 8 10 11 12 13 13 13 14 13 13 13 13 13 13 12 12 11 11 10 9 9 8 5 4 3 2 1 1 1 1 2 2 1
12 11 11 9 7 6 6 7 10 12 13 13 13 14 14 14 14 14 13 13 11 10 11 8 8 7 7 7 3 2 2 1 1 1 1 2 2 1
13 13 12 10 10 11 8 7 9 8 9 12 14 14 14 13 13 12 10 9 9 8 9 8 8 8 6 5 3 2 2 1 1 1 1 2 1 1
13 13 13 13 13 11 12 12 12 12 11 10 12 12 12 9 9 9 9 9 8 9 9 10 7 8 5 6 3 3 2 2 2 1 1 2 2 2
13 13 13 13 10 7 11 12 12 11 9 8 8 8 8 8 8 11 12 12 11 10 9 8 7 8 7 7 6 3 3 3 2 2 1 3 3 2
13 13 9 10 7 7 8 9 11 12 11 12 13 13 12 11 9 12 12 12 12 12 8 10 10 9 10 7 7 6 6 4 3 3 2 3 4 5
13 13 13 8 7 7 8 10 10 11 12 14 14 14 14 13 12 12 11 11 10 10 9 8 8 9 9 9 7 7 7 7 6 5 4 4 5 5
12 12 11 8 8 8 9 9 9 11 14 14 12 12 12 11 11 11 11 10 10 10 9 10 9 9 9 9 9 7 7 7 7 6 6 5 5 5
10 9 9 9 9 10 9 10 10 13 12 12 12 12 11 10 10 11 10 10 10 10 8 9 9 9 9 9 9 9 8 7 6 5 6 6 7 8
10 11 10 10 10 11 12 11 11 11 11 11 11 10 10 9 9 9 10 9 9 10 9 9 9 9 9 9 9 9 8 9 7 6 6 6 6 7
10 12 13 13 13 12 12 11 11 10 10 10 10 9 9 8 8 7 8 8 9 10 9 10 9 10 10 10 9 9 9 8 7 7 6 7 6 6
11 13 13 13 13 13 13 12 11 11 11 10 9 9 9 8 8 7 7 8 9 9 10 9 9 9 9 9 7 10 10 9 7 7 7 8 7 6
12 13 13 13 13 12 12 12 12 11 10 10 10 10 8 8 8 8 8 8 9 9 9 9 9 10 11 12 10 6 9 9 8 8 7 7 8 7
12 13 13 12 12 12 11 11 11 11 11 11 10 9 8 8 9 9 9 9 9 8 9 9 9 9 10 10 9 7 5 7 7 8 7 7 6 4
12 12 12 12 11 11 11 12 11 10 10 9 8 9 8 9 9 9 9 7 8 9 10 9 8 6 6 6 9 9 8 5 6 7 8 8 8 7
12 11 12 12 12 11 11 11 10 10 9 10 9 9 9 9 9 8 8 10 9 9 9 8 7 7 8 8 9 8 7 7 6 5 5 5 7 9
12 12 12 12 12 12 12 11 11 11 10 9 9 9 9 9 8 8 9 9 9 9 9 9 8 8 8 8 8 8 8 7 7 7 7 6 5 4